Year,Month,Day,Hour,Minute,Value (Times are PST for temperature in C)
2012,07,13,00,00,17.50
2012,07,13,00,01,17.50
2012,07,13,00,02,17.50
2012,07,13,00,03,17.50
2012,07,13,00,04,17.50
2012,07,13,00,05,17.40
2012,07,13,00,06,17.40
2012,07,13,00,07,17.40
2012,07,13,00,08,17.40
2012,07,13,00,09,17.40
2012,07,13,00,10,17.40
2012,07,13,00,11,17.40
2012,07,13,00,12,17.40
2012,07,13,00,13,17.50
2012,07,13,00,16,17.50
2012,07,13,00,17,17.50
2012,07,13,00,18,17.40
2012,07,13,00,19,17.40
2012,07,13,00,20,17.40
2012,07,13,00,21,17.40
2012,07,13,00,22,17.40
2012,07,13,00,23,17.40
2012,07,13,00,24,17.40
2012,07,13,00,25,17.40
2012,07,13,00,26,17.40
2012,07,13,00,27,17.40
2012,07,13,00,28,17.40
2012,07,13,00,29,17.40
2012,07,13,00,30,17.40
2012,07,13,00,31,17.30
2012,07,13,00,32,17.30
2012,07,13,00,33,17.30
2012,07,13,00,34,17.30
2012,07,13,00,35,17.30
2012,07,13,00,36,17.30
2012,07,13,00,37,17.30
2012,07,13,00,38,17.30
2012,07,13,00,39,17.30
2012,07,13,00,40,17.30
2012,07,13,00,41,17.30
2012,07,13,00,42,17.30
2012,07,13,00,43,17.30
2012,07,13,00,44,17.30
2012,07,13,00,45,17.30
2012,07,13,00,46,17.30
2012,07,13,00,47,17.30
2012,07,13,00,48,17.30
2012,07,13,00,49,17.30
2012,07,13,00,50,17.30
2012,07,13,00,51,17.30
2012,07,13,00,52,17.30
2012,07,13,00,53,17.30
2012,07,13,00,54,17.30
2012,07,13,00,55,17.30
2012,07,13,00,56,17.30
2012,07,13,00,57,17.30
2012,07,13,00,58,17.30
2012,07,13,00,59,17.30
2012,07,13,01,00,17.30
2012,07,13,01,01,17.30
2012,07,13,01,02,17.30
2012,07,13,01,03,17.30
2012,07,13,01,04,17.30
2012,07,13,01,05,17.30
2012,07,13,01,06,17.30
2012,07,13,01,07,17.30
2012,07,13,01,08,17.30
2012,07,13,01,09,17.30
2012,07,13,01,10,17.30
2012,07,13,01,11,17.30
2012,07,13,01,12,17.30
2012,07,13,01,13,17.30
2012,07,13,01,14,17.40
2012,07,13,01,15,17.40
2012,07,13,01,16,17.40
2012,07,13,01,17,17.40
2012,07,13,01,18,17.40
2012,07,13,01,19,17.40
2012,07,13,01,20,17.40
2012,07,13,01,21,17.50
2012,07,13,01,22,17.50
2012,07,13,01,23,17.50
2012,07,13,01,24,17.50
2012,07,13,01,25,17.50
2012,07,13,01,26,17.50
2012,07,13,01,27,17.50
2012,07,13,01,28,17.50
2012,07,13,01,29,17.50
2012,07,13,01,30,17.50
2012,07,13,01,31,17.50
2012,07,13,01,32,17.50
2012,07,13,01,33,17.50
2012,07,13,01,34,17.50
2012,07,13,01,35,17.50
2012,07,13,01,36,17.50
2012,07,13,01,37,17.60
2012,07,13,01,38,17.60
2012,07,13,01,39,17.60
2012,07,13,01,40,17.60
2012,07,13,01,41,17.60
2012,07,13,01,42,17.60
2012,07,13,01,43,17.60
2012,07,13,01,44,17.70
2012,07,13,01,45,17.70
2012,07,13,01,46,17.70
2012,07,13,01,47,17.70
2012,07,13,01,48,17.70
2012,07,13,01,49,17.70
2012,07,13,01,50,17.70
2012,07,13,01,51,17.70
2012,07,13,01,52,17.70
2012,07,13,01,53,17.70
2012,07,13,01,54,17.70
2012,07,13,01,55,17.60
2012,07,13,01,56,17.60
2012,07,13,01,57,17.60
2012,07,13,01,58,17.50
2012,07,13,01,59,17.50
2012,07,13,02,00,17.40
2012,07,13,02,01,17.30
2012,07,13,02,02,17.30
2012,07,13,02,03,17.30
2012,07,13,02,04,17.20
2012,07,13,02,05,17.20
2012,07,13,02,06,17.20
2012,07,13,02,07,17.10
2012,07,13,02,08,17.10
2012,07,13,02,09,17.10
2012,07,13,02,10,17.20
2012,07,13,02,11,17.20
2012,07,13,02,12,17.30
2012,07,13,02,13,17.30
2012,07,13,02,14,17.30
2012,07,13,02,15,17.30
2012,07,13,02,16,17.30
2012,07,13,02,17,17.30
2012,07,13,02,18,17.30
2012,07,13,02,19,17.30
2012,07,13,02,20,17.20
2012,07,13,02,21,17.20
2012,07,13,02,22,17.20
2012,07,13,02,23,17.10
2012,07,13,02,24,17.10
2012,07,13,02,25,17.10
2012,07,13,02,26,17.00
2012,07,13,02,27,17.00
2012,07,13,02,28,17.00
2012,07,13,02,29,16.90
2012,07,13,02,30,16.90
2012,07,13,02,31,17.00
2012,07,13,02,32,17.00
2012,07,13,02,33,17.00
2012,07,13,02,34,17.00
2012,07,13,02,35,17.00
2012,07,13,02,36,17.00
2012,07,13,02,37,17.10
2012,07,13,02,38,17.10
2012,07,13,02,39,17.10
2012,07,13,02,40,17.10
2012,07,13,02,41,17.10
2012,07,13,02,42,17.10
2012,07,13,02,43,17.10
2012,07,13,02,44,17.10
2012,07,13,02,45,17.00
2012,07,13,02,46,17.00
2012,07,13,02,47,17.00
2012,07,13,02,48,17.00
2012,07,13,02,49,16.90
2012,07,13,02,50,16.90
2012,07,13,02,51,16.90
2012,07,13,02,52,16.90
2012,07,13,02,53,16.80
2012,07,13,02,54,16.80
2012,07,13,02,55,16.70
2012,07,13,02,56,16.70
2012,07,13,02,57,16.70
2012,07,13,02,58,16.70
2012,07,13,02,59,16.70
2012,07,13,03,00,16.70
2012,07,13,03,01,16.70
2012,07,13,03,02,16.70
2012,07,13,03,03,16.60
2012,07,13,03,04,16.60
2012,07,13,03,05,16.50
2012,07,13,03,06,16.40
2012,07,13,03,07,16.40
2012,07,13,03,08,16.40
2012,07,13,03,09,16.40
2012,07,13,03,10,16.40
2012,07,13,03,11,16.30
2012,07,13,03,12,16.30
2012,07,13,03,13,16.30
2012,07,13,03,14,16.30
2012,07,13,03,15,16.30
2012,07,13,03,16,16.20
2012,07,13,03,17,16.20
2012,07,13,03,18,16.20
2012,07,13,03,19,16.10
2012,07,13,03,20,16.10
2012,07,13,03,21,16.00
2012,07,13,03,22,15.90
2012,07,13,03,23,15.90
2012,07,13,03,24,15.80
2012,07,13,03,25,15.80
2012,07,13,03,26,15.80
2012,07,13,03,27,15.80
2012,07,13,03,28,15.80
2012,07,13,03,29,15.80
2012,07,13,03,30,15.80
2012,07,13,03,31,15.80
2012,07,13,03,32,15.80
2012,07,13,03,33,15.80
2012,07,13,03,34,15.80
2012,07,13,03,35,15.80
2012,07,13,03,36,15.80
2012,07,13,03,37,15.80
2012,07,13,03,38,15.80
2012,07,13,03,39,15.80
2012,07,13,03,40,15.80
2012,07,13,03,41,15.80
2012,07,13,03,42,15.80
2012,07,13,03,43,15.80
2012,07,13,03,44,15.70
2012,07,13,03,45,15.70
2012,07,13,03,46,15.70
2012,07,13,03,47,15.60
2012,07,13,03,48,15.60
2012,07,13,03,49,15.60
2012,07,13,03,50,15.60
2012,07,13,03,51,15.60
2012,07,13,03,52,15.60
2012,07,13,03,53,15.60
2012,07,13,03,54,15.60
2012,07,13,03,55,15.50
2012,07,13,03,56,15.50
2012,07,13,03,57,15.50
2012,07,13,03,58,15.50
2012,07,13,03,59,15.50
2012,07,13,04,00,15.50
2012,07,13,04,01,15.50
2012,07,13,04,02,15.50
2012,07,13,04,03,15.50
2012,07,13,04,04,15.50
2012,07,13,04,05,15.50
2012,07,13,04,06,15.50
2012,07,13,04,07,15.50
2012,07,13,04,08,15.50
2012,07,13,04,09,15.60
2012,07,13,04,10,15.60
2012,07,13,04,11,15.60
2012,07,13,04,12,15.60
2012,07,13,04,13,15.60
2012,07,13,04,14,15.60
2012,07,13,04,15,15.60
2012,07,13,04,16,15.70
2012,07,13,04,17,15.70
2012,07,13,04,18,15.80
2012,07,13,04,19,15.80
2012,07,13,04,20,15.80
2012,07,13,04,21,15.80
2012,07,13,04,22,15.80
2012,07,13,04,23,15.80
2012,07,13,04,24,15.80
2012,07,13,04,25,15.70
2012,07,13,04,26,15.70
2012,07,13,04,27,15.70
2012,07,13,04,28,15.70
2012,07,13,04,29,15.60
2012,07,13,04,30,15.60
2012,07,13,04,31,15.60
2012,07,13,04,32,15.60
2012,07,13,04,33,15.60
2012,07,13,04,34,15.60
2012,07,13,04,35,15.50
2012,07,13,04,36,15.50
2012,07,13,04,37,15.50
2012,07,13,04,38,15.50
2012,07,13,04,39,15.50
2012,07,13,04,40,15.50
2012,07,13,04,41,15.50
2012,07,13,04,42,15.50
2012,07,13,04,43,15.50
2012,07,13,04,44,15.50
2012,07,13,04,45,15.50
2012,07,13,04,46,15.50
2012,07,13,04,47,15.50
2012,07,13,04,48,15.50
2012,07,13,04,49,15.50
2012,07,13,04,50,15.50
2012,07,13,04,51,15.50
2012,07,13,04,52,15.40
2012,07,13,04,53,15.40
2012,07,13,04,54,15.40
2012,07,13,04,55,15.40
2012,07,13,04,56,15.40
2012,07,13,04,57,15.40
2012,07,13,04,58,15.30
2012,07,13,04,59,15.30
2012,07,13,05,00,15.30
2012,07,13,05,01,15.30
2012,07,13,05,02,15.30
2012,07,13,05,03,15.30
2012,07,13,05,04,15.30
2012,07,13,05,05,15.30
2012,07,13,05,06,15.30
2012,07,13,05,07,15.30
2012,07,13,05,08,15.30
2012,07,13,05,09,15.30
2012,07,13,05,10,15.30
2012,07,13,05,11,15.30
2012,07,13,05,12,15.30
2012,07,13,05,13,15.30
2012,07,13,05,14,15.30
2012,07,13,05,15,15.30
2012,07,13,05,16,15.30
2012,07,13,05,17,15.30
2012,07,13,05,18,15.30
2012,07,13,05,19,15.30
2012,07,13,05,20,15.30
2012,07,13,05,21,15.30
2012,07,13,05,22,15.30
2012,07,13,05,23,15.30
2012,07,13,05,24,15.30
2012,07,13,05,25,15.30
2012,07,13,05,26,15.30
2012,07,13,05,27,15.30
2012,07,13,05,28,15.30
2012,07,13,05,29,15.30
2012,07,13,05,30,15.30
2012,07,13,05,31,15.30
2012,07,13,05,32,15.30
2012,07,13,05,33,15.30
2012,07,13,05,34,15.30
2012,07,13,05,35,15.30
2012,07,13,05,36,15.30
2012,07,13,05,37,15.30
2012,07,13,05,38,15.30
2012,07,13,05,39,15.30
2012,07,13,05,40,15.30
2012,07,13,05,41,15.30
2012,07,13,05,42,15.20
2012,07,13,05,43,15.20
2012,07,13,05,44,15.20
2012,07,13,05,45,15.20
2012,07,13,05,46,15.10
2012,07,13,05,47,15.10
2012,07,13,05,48,15.10
2012,07,13,05,49,15.10
2012,07,13,05,50,15.10
2012,07,13,05,51,15.10
2012,07,13,05,52,15.10
2012,07,13,05,53,15.10
2012,07,13,05,54,15.10
2012,07,13,05,55,15.10
2012,07,13,05,56,15.10
2012,07,13,05,57,15.10
2012,07,13,05,58,15.10
2012,07,13,05,59,15.10
2012,07,13,06,00,15.10
2012,07,13,06,01,15.10
2012,07,13,06,02,15.10
2012,07,13,06,03,15.10
2012,07,13,06,04,15.20
2012,07,13,06,05,15.20
2012,07,13,06,06,15.20
2012,07,13,06,07,15.30
2012,07,13,06,08,15.30
2012,07,13,06,09,15.30
2012,07,13,06,10,15.30
2012,07,13,06,11,15.30
2012,07,13,06,12,15.30
2012,07,13,06,13,15.30
2012,07,13,06,14,15.40
2012,07,13,06,15,15.40
2012,07,13,06,16,15.40
2012,07,13,06,17,15.50
2012,07,13,06,18,15.50
2012,07,13,06,19,15.50
2012,07,13,06,20,15.60
2012,07,13,06,21,15.60
2012,07,13,06,22,15.60
2012,07,13,06,23,15.70
2012,07,13,06,24,15.70
2012,07,13,06,25,15.70
2012,07,13,06,26,15.70
2012,07,13,06,27,15.70
2012,07,13,06,28,15.80
2012,07,13,06,29,15.80
2012,07,13,06,30,15.80
2012,07,13,06,31,15.80
2012,07,13,06,32,15.80
2012,07,13,06,33,15.80
2012,07,13,06,34,15.80
2012,07,13,06,35,15.80
2012,07,13,06,36,15.80
2012,07,13,06,37,15.90
2012,07,13,06,38,15.90
2012,07,13,06,39,16.00
2012,07,13,06,40,16.10
2012,07,13,06,41,16.10
2012,07,13,06,42,16.10
2012,07,13,06,43,16.10
2012,07,13,06,44,16.10
2012,07,13,06,45,16.10
2012,07,13,06,46,16.10
2012,07,13,06,47,16.10
2012,07,13,06,48,16.10
2012,07,13,06,49,16.10
2012,07,13,06,50,16.20
2012,07,13,06,51,16.20
2012,07,13,06,52,16.20
2012,07,13,06,53,16.20
2012,07,13,06,54,16.20
2012,07,13,06,55,16.20
2012,07,13,06,56,16.20
2012,07,13,06,57,16.20
2012,07,13,06,58,16.20
2012,07,13,06,59,16.30
2012,07,13,07,00,16.30
2012,07,13,07,01,16.20
2012,07,13,07,02,16.20
2012,07,13,07,03,16.20
2012,07,13,07,04,16.20
2012,07,13,07,05,16.10
2012,07,13,07,06,16.10
2012,07,13,07,07,16.00
2012,07,13,07,08,15.80
2012,07,13,07,09,15.70
2012,07,13,07,10,15.60
2012,07,13,07,11,15.50
2012,07,13,07,12,15.40
2012,07,13,07,13,15.30
2012,07,13,07,14,15.30
2012,07,13,07,15,15.20
2012,07,13,07,16,15.10
2012,07,13,07,17,15.00
2012,07,13,07,18,14.90
2012,07,13,07,19,14.80
2012,07,13,07,20,14.80
2012,07,13,07,21,14.70
2012,07,13,07,22,14.60
2012,07,13,07,23,14.60
2012,07,13,07,24,14.60
2012,07,13,07,25,14.60
2012,07,13,07,26,14.60
2012,07,13,07,27,14.60
2012,07,13,07,28,14.70
2012,07,13,07,29,14.70
2012,07,13,07,30,14.70
2012,07,13,07,31,14.70
2012,07,13,07,32,14.70
2012,07,13,07,33,14.70
2012,07,13,07,34,14.70
2012,07,13,07,35,14.80
2012,07,13,07,36,14.80
2012,07,13,07,37,14.80
2012,07,13,07,38,14.80
2012,07,13,07,39,14.90
2012,07,13,07,40,15.00
2012,07,13,07,41,15.10
2012,07,13,07,42,15.20
2012,07,13,07,43,15.30
2012,07,13,07,44,15.40
2012,07,13,07,45,15.50
2012,07,13,07,46,15.60
2012,07,13,07,47,15.80
2012,07,13,07,48,15.90
2012,07,13,07,49,16.10
2012,07,13,07,50,16.10
2012,07,13,07,51,16.10
2012,07,13,07,52,16.20
2012,07,13,07,53,16.20
2012,07,13,07,54,16.30
2012,07,13,07,55,16.40
2012,07,13,07,56,16.40
2012,07,13,07,57,16.50
2012,07,13,07,58,16.70
2012,07,13,07,59,16.80
2012,07,13,08,00,16.80
2012,07,13,08,01,16.80
2012,07,13,08,02,16.80
2012,07,13,08,03,16.80
2012,07,13,08,04,16.90
2012,07,13,08,05,16.90
2012,07,13,08,06,17.00
2012,07,13,08,07,17.00
2012,07,13,08,08,17.00
2012,07,13,08,09,17.10
2012,07,13,08,10,17.10
2012,07,13,08,11,17.20
2012,07,13,08,12,17.30
2012,07,13,08,13,17.30
2012,07,13,08,14,17.30
2012,07,13,08,15,17.40
2012,07,13,08,16,17.50
2012,07,13,08,17,17.60
2012,07,13,08,18,17.70
2012,07,13,08,19,17.90
2012,07,13,08,20,17.90
2012,07,13,08,21,18.10
2012,07,13,08,22,18.20
2012,07,13,08,23,18.20
2012,07,13,08,24,18.20
2012,07,13,08,25,18.20
2012,07,13,08,26,18.20
2012,07,13,08,27,18.20
2012,07,13,08,28,18.20
2012,07,13,08,29,18.30
2012,07,13,08,30,18.30
2012,07,13,08,31,18.30
2012,07,13,08,32,18.40
2012,07,13,08,33,18.40
2012,07,13,08,34,18.40
2012,07,13,08,35,18.50
2012,07,13,08,36,18.50
2012,07,13,08,37,18.60
2012,07,13,08,38,18.70
2012,07,13,08,39,18.70
2012,07,13,08,40,18.70
2012,07,13,08,41,18.80
2012,07,13,08,42,18.80
2012,07,13,08,43,18.80
2012,07,13,08,44,18.90
2012,07,13,08,45,18.90
2012,07,13,08,46,18.90
2012,07,13,08,47,18.90
2012,07,13,08,48,18.80
2012,07,13,08,49,18.70
2012,07,13,08,50,18.70
2012,07,13,08,51,18.70
2012,07,13,08,52,18.70
2012,07,13,08,53,18.80
2012,07,13,08,54,18.80
2012,07,13,08,55,18.90
2012,07,13,08,56,18.90
2012,07,13,08,57,18.90
2012,07,13,08,58,18.90
2012,07,13,08,59,19.00
2012,07,13,09,00,19.10
2012,07,13,09,01,19.10
2012,07,13,09,02,19.10
2012,07,13,09,03,19.10
2012,07,13,09,04,19.10
2012,07,13,09,05,19.10
2012,07,13,09,06,19.00
2012,07,13,09,07,18.80
2012,07,13,09,08,18.70
2012,07,13,09,09,18.70
2012,07,13,09,10,18.60
2012,07,13,09,11,18.60
2012,07,13,09,12,18.60
2012,07,13,09,13,18.60
2012,07,13,09,14,18.70
2012,07,13,09,15,18.70
2012,07,13,09,16,18.80
2012,07,13,09,17,18.80
2012,07,13,09,18,18.90
2012,07,13,09,19,18.90
2012,07,13,09,20,18.90
2012,07,13,09,21,18.90
2012,07,13,09,22,18.90
2012,07,13,09,23,18.90
2012,07,13,09,24,18.90
2012,07,13,09,25,18.90
2012,07,13,09,26,18.90
2012,07,13,09,27,18.90
2012,07,13,09,28,18.90
2012,07,13,09,29,18.90
2012,07,13,09,30,18.90
2012,07,13,09,31,18.90
2012,07,13,09,32,18.90
2012,07,13,09,33,18.90
2012,07,13,09,34,18.80
2012,07,13,09,35,18.70
2012,07,13,09,36,18.60
2012,07,13,09,37,18.50
2012,07,13,09,38,18.50
2012,07,13,09,39,18.50
2012,07,13,09,40,18.50
2012,07,13,09,41,18.50
2012,07,13,09,42,18.50
2012,07,13,09,43,18.50
2012,07,13,09,44,18.50
2012,07,13,09,45,18.40
2012,07,13,09,46,18.30
2012,07,13,09,47,18.10
2012,07,13,09,48,17.80
2012,07,13,09,49,17.50
2012,07,13,09,50,17.30
2012,07,13,09,51,17.00
2012,07,13,09,52,16.80
2012,07,13,09,53,16.60
2012,07,13,09,54,16.40
2012,07,13,09,55,16.20
2012,07,13,09,56,15.90
2012,07,13,09,57,15.70
2012,07,13,09,58,15.40
2012,07,13,09,59,15.20
2012,07,13,10,00,15.10
2012,07,13,10,01,14.80
2012,07,13,10,02,14.60
2012,07,13,10,03,14.30
2012,07,13,10,04,14.10
2012,07,13,10,05,13.90
2012,07,13,10,06,13.80
2012,07,13,10,07,13.70
2012,07,13,10,08,13.60
2012,07,13,10,09,13.50
2012,07,13,10,10,13.50
2012,07,13,10,11,13.50
2012,07,13,10,12,13.40
2012,07,13,10,13,13.40
2012,07,13,10,14,13.40
2012,07,13,10,15,13.30
2012,07,13,10,16,13.30
2012,07,13,10,17,13.30
2012,07,13,10,18,13.20
2012,07,13,10,19,13.10
2012,07,13,10,20,13.00
2012,07,13,10,21,13.00
2012,07,13,10,22,13.00
2012,07,13,10,23,13.00
2012,07,13,10,24,13.00
2012,07,13,10,25,13.00
2012,07,13,10,26,12.90
2012,07,13,10,27,12.80
2012,07,13,10,28,12.80
2012,07,13,10,29,12.70
2012,07,13,10,30,12.70
2012,07,13,10,31,12.70
2012,07,13,10,32,12.70
2012,07,13,10,33,12.70
2012,07,13,10,34,12.70
2012,07,13,10,35,12.70
2012,07,13,10,36,12.70
2012,07,13,10,37,12.70
2012,07,13,10,38,12.80
2012,07,13,10,39,12.80
2012,07,13,10,40,12.80
2012,07,13,10,41,12.80
2012,07,13,10,42,12.80
2012,07,13,10,43,12.80
2012,07,13,10,44,12.80
2012,07,13,10,45,12.80
2012,07,13,10,46,12.80
2012,07,13,10,47,12.80
2012,07,13,10,48,12.80
2012,07,13,10,49,12.80
2012,07,13,10,50,12.80
2012,07,13,10,51,12.80
2012,07,13,10,52,12.90
2012,07,13,10,53,12.90
2012,07,13,10,54,13.00
2012,07,13,10,55,13.00
2012,07,13,10,56,13.10
2012,07,13,10,57,13.10
2012,07,13,10,58,13.20
2012,07,13,10,59,13.20
2012,07,13,11,00,13.30
2012,07,13,11,01,13.30
2012,07,13,11,02,13.40
2012,07,13,11,03,13.50
2012,07,13,11,04,13.60
2012,07,13,11,05,13.60
2012,07,13,11,06,13.70
2012,07,13,11,07,13.90
2012,07,13,11,08,14.00
2012,07,13,11,09,14.10
2012,07,13,11,10,14.20
2012,07,13,11,11,14.40
2012,07,13,11,12,14.50
2012,07,13,11,13,14.60
2012,07,13,11,14,14.70
2012,07,13,11,15,14.90
2012,07,13,11,16,15.00
2012,07,13,11,17,15.10
2012,07,13,11,18,15.20
2012,07,13,11,19,15.20
2012,07,13,11,20,15.30
2012,07,13,11,21,15.30
2012,07,13,11,22,15.40
2012,07,13,11,23,15.50
2012,07,13,11,24,15.50
2012,07,13,11,25,15.60
2012,07,13,11,26,15.70
2012,07,13,11,27,15.80
2012,07,13,11,28,15.80
2012,07,13,11,29,15.80
2012,07,13,11,30,15.90
2012,07,13,11,31,15.90
2012,07,13,11,32,16.00
2012,07,13,11,33,16.10
2012,07,13,11,34,16.10
2012,07,13,11,35,16.10
2012,07,13,11,36,16.10
2012,07,13,11,37,16.10
2012,07,13,11,38,16.20
2012,07,13,11,39,16.20
2012,07,13,11,40,16.30
2012,07,13,11,41,16.30
2012,07,13,11,42,16.30
2012,07,13,11,43,16.40
2012,07,13,11,44,16.40
2012,07,13,11,45,16.40
2012,07,13,11,46,16.50
2012,07,13,11,47,16.60
2012,07,13,11,48,16.60
2012,07,13,11,49,16.70
2012,07,13,11,50,16.70
2012,07,13,11,51,16.80
2012,07,13,11,52,16.80
2012,07,13,11,53,16.80
2012,07,13,11,54,16.80
2012,07,13,11,55,16.80
2012,07,13,11,56,16.80
2012,07,13,11,57,16.90
2012,07,13,11,58,16.90
2012,07,13,11,59,16.90
2012,07,13,12,00,17.00
2012,07,13,12,01,17.00
2012,07,13,12,02,17.00
2012,07,13,12,03,17.10
2012,07,13,12,04,17.00
2012,07,13,12,05,16.90
2012,07,13,12,06,16.80
2012,07,13,12,07,16.70
2012,07,13,12,08,16.50
2012,07,13,12,09,16.30
2012,07,13,12,10,16.10
2012,07,13,12,11,16.10
2012,07,13,12,12,15.90
2012,07,13,12,13,15.90
2012,07,13,12,14,15.90
2012,07,13,12,15,15.90
2012,07,13,12,16,15.90
2012,07,13,12,17,15.90
2012,07,13,12,18,15.90
2012,07,13,12,19,15.90
2012,07,13,12,20,15.90
2012,07,13,12,21,15.80
2012,07,13,12,22,15.60
2012,07,13,12,23,15.50
2012,07,13,12,24,15.30
2012,07,13,12,25,15.30
2012,07,13,12,26,15.30
2012,07,13,12,27,15.10
2012,07,13,12,28,15.00
2012,07,13,12,29,14.90
2012,07,13,12,30,14.90
2012,07,13,12,31,14.90
2012,07,13,12,32,14.90
2012,07,13,12,33,14.90
2012,07,13,12,34,14.90
2012,07,13,12,35,14.90
2012,07,13,12,36,14.80
2012,07,13,12,37,14.80
2012,07,13,12,38,14.90
2012,07,13,12,39,14.90
2012,07,13,12,40,15.00
2012,07,13,12,41,15.10
2012,07,13,12,42,15.10
2012,07,13,12,43,15.20
2012,07,13,12,44,15.30
2012,07,13,12,45,15.30
2012,07,13,12,46,15.40
2012,07,13,12,47,15.50
2012,07,13,12,48,15.60
2012,07,13,12,49,15.70
2012,07,13,12,50,15.80
2012,07,13,12,51,15.80
2012,07,13,12,52,16.00
2012,07,13,12,53,16.10
2012,07,13,12,54,16.20
2012,07,13,12,55,16.30
2012,07,13,12,56,16.40
2012,07,13,12,57,16.50
2012,07,13,12,58,16.60
2012,07,13,12,59,16.70
2012,07,13,13,00,16.80
2012,07,13,13,01,17.00
2012,07,13,13,02,17.10
2012,07,13,13,03,17.20
2012,07,13,13,04,17.30
2012,07,13,13,05,17.40
2012,07,13,13,06,17.50
2012,07,13,13,07,17.60
2012,07,13,13,08,17.60
2012,07,13,13,09,17.70
2012,07,13,13,10,17.80
2012,07,13,13,11,17.80
2012,07,13,13,12,17.90
2012,07,13,13,13,18.00
2012,07,13,13,14,18.20
2012,07,13,13,15,18.30
2012,07,13,13,16,18.50
2012,07,13,13,17,18.60
2012,07,13,13,18,18.70
2012,07,13,13,19,18.90
2012,07,13,13,20,19.00
2012,07,13,13,21,19.20
2012,07,13,13,22,19.40
2012,07,13,13,23,19.40
2012,07,13,13,24,19.50
2012,07,13,13,25,19.50
2012,07,13,13,26,19.60
2012,07,13,13,27,19.60
2012,07,13,13,28,19.80
2012,07,13,13,29,19.90
2012,07,13,13,30,19.90
2012,07,13,13,31,20.10
2012,07,13,13,32,20.20
2012,07,13,13,33,20.20
2012,07,13,13,34,20.20
2012,07,13,13,35,20.20
2012,07,13,13,36,20.20
2012,07,13,13,37,20.30
2012,07,13,13,38,20.30
2012,07,13,13,39,20.40
2012,07,13,13,40,20.50
2012,07,13,13,41,20.40
2012,07,13,13,42,20.40
2012,07,13,13,43,20.30
2012,07,13,13,44,20.30
2012,07,13,13,45,20.40
2012,07,13,13,46,20.40
2012,07,13,13,47,20.20
2012,07,13,13,48,20.20
2012,07,13,13,49,20.00
2012,07,13,13,50,19.90
2012,07,13,13,51,19.80
2012,07,13,13,52,19.70
2012,07,13,13,53,19.50
2012,07,13,13,54,19.20
2012,07,13,13,55,18.90
2012,07,13,13,56,18.50
2012,07,13,13,57,18.30
2012,07,13,13,58,18.20
2012,07,13,13,59,18.00
2012,07,13,14,00,17.90
2012,07,13,14,01,17.80
2012,07,13,14,02,17.80
2012,07,13,14,03,17.60
2012,07,13,14,04,17.50
2012,07,13,14,05,17.40
2012,07,13,14,06,17.40
2012,07,13,14,07,17.50
2012,07,13,14,08,17.60
2012,07,13,14,09,17.60
2012,07,13,14,10,17.60
2012,07,13,14,11,17.60
2012,07,13,14,12,17.70
2012,07,13,14,13,17.60
2012,07,13,14,14,17.60
2012,07,13,14,15,17.70
2012,07,13,14,16,17.70
2012,07,13,14,17,17.80
2012,07,13,14,18,17.90
2012,07,13,14,19,17.90
2012,07,13,14,20,17.90
2012,07,13,14,21,17.90
2012,07,13,14,22,17.90
2012,07,13,14,23,17.90
2012,07,13,14,24,17.90
2012,07,13,14,25,18.00
2012,07,13,14,26,18.10
2012,07,13,14,27,18.20
2012,07,13,14,28,18.20
2012,07,13,14,29,18.40
2012,07,13,14,30,18.50
2012,07,13,14,31,18.60
2012,07,13,14,32,18.60
2012,07,13,14,33,18.60
2012,07,13,14,34,18.70
2012,07,13,14,35,18.80
2012,07,13,14,36,18.90
2012,07,13,14,37,18.90
2012,07,13,14,38,19.00
2012,07,13,14,39,19.10
2012,07,13,14,40,19.10
2012,07,13,14,41,19.10
2012,07,13,14,42,19.20
2012,07,13,14,43,19.40
2012,07,13,14,44,19.40
2012,07,13,14,45,19.50
2012,07,13,14,46,19.60
2012,07,13,14,47,19.50
2012,07,13,14,48,19.60
2012,07,13,14,49,19.50
2012,07,13,14,50,19.60
2012,07,13,14,51,19.60
2012,07,13,14,52,19.60
2012,07,13,14,53,19.70
2012,07,13,14,54,19.70
2012,07,13,14,55,19.80
2012,07,13,14,56,19.80
2012,07,13,14,57,19.80
2012,07,13,14,58,19.70
2012,07,13,14,59,19.70
2012,07,13,15,00,19.70
2012,07,13,15,01,19.70
2012,07,13,15,02,19.80
2012,07,13,15,03,19.90
2012,07,13,15,04,19.90
2012,07,13,15,05,19.90
2012,07,13,15,06,19.90
2012,07,13,15,07,19.80
2012,07,13,15,08,19.80
2012,07,13,15,09,19.90
2012,07,13,15,10,19.90
2012,07,13,15,11,20.00
2012,07,13,15,12,20.10
2012,07,13,15,13,20.20
2012,07,13,15,14,20.40
2012,07,13,15,15,20.60
2012,07,13,15,16,20.80
2012,07,13,15,17,20.90
2012,07,13,15,18,21.10
2012,07,13,15,19,21.20
2012,07,13,15,20,21.20
2012,07,13,15,21,21.30
2012,07,13,15,22,21.30
2012,07,13,15,23,21.40
2012,07,13,15,24,21.40
2012,07,13,15,25,21.30
2012,07,13,15,26,21.30
2012,07,13,15,27,21.30
2012,07,13,15,28,21.20
2012,07,13,15,29,21.10
2012,07,13,15,30,21.10
2012,07,13,15,31,21.00
2012,07,13,15,32,21.00
2012,07,13,15,33,20.90
2012,07,13,15,34,20.90
2012,07,13,15,35,20.90
2012,07,13,15,36,21.00
2012,07,13,15,37,21.10
2012,07,13,15,38,21.10
2012,07,13,15,39,21.10
2012,07,13,15,40,21.20
2012,07,13,15,41,21.20
2012,07,13,15,42,21.30
2012,07,13,15,43,21.30
2012,07,13,15,44,21.40
2012,07,13,15,45,21.50
2012,07,13,15,46,21.60
2012,07,13,15,47,21.60
2012,07,13,15,48,21.80
2012,07,13,15,49,21.90
2012,07,13,15,50,22.00
2012,07,13,15,51,22.10
2012,07,13,15,52,22.20
2012,07,13,15,53,22.30
2012,07,13,15,54,22.50
2012,07,13,15,55,22.60
2012,07,13,15,56,22.60
2012,07,13,15,57,22.70
2012,07,13,15,58,22.80
2012,07,13,15,59,22.90
2012,07,13,16,00,22.90
2012,07,13,16,01,22.90
2012,07,13,16,02,22.70
2012,07,13,16,03,22.60
2012,07,13,16,04,22.50
2012,07,13,16,05,22.30
2012,07,13,16,06,22.40
2012,07,13,16,07,22.40
2012,07,13,16,08,22.40
2012,07,13,16,09,22.30
2012,07,13,16,10,22.30
2012,07,13,16,11,22.20
2012,07,13,16,12,22.00
2012,07,13,16,13,21.70
2012,07,13,16,14,21.60
2012,07,13,16,15,21.60
2012,07,13,16,16,21.50
2012,07,13,16,17,21.40
2012,07,13,16,18,21.40
2012,07,13,16,19,21.20
2012,07,13,16,20,21.00
2012,07,13,16,21,20.80
2012,07,13,16,22,20.70
2012,07,13,16,23,20.60
2012,07,13,16,24,20.50
2012,07,13,16,25,20.40
2012,07,13,16,26,20.30
2012,07,13,16,27,20.30
2012,07,13,16,28,20.30
2012,07,13,16,29,20.40
2012,07,13,16,30,20.50
2012,07,13,16,31,20.60
2012,07,13,16,32,20.70
2012,07,13,16,33,20.90
2012,07,13,16,34,21.00
2012,07,13,16,35,21.10
2012,07,13,16,36,21.20
2012,07,13,16,37,21.20
2012,07,13,16,38,21.20
2012,07,13,16,39,21.20
2012,07,13,16,40,21.20
2012,07,13,16,41,21.20
2012,07,13,16,42,21.20
2012,07,13,16,43,21.20
2012,07,13,16,44,21.30
2012,07,13,16,45,21.30
2012,07,13,16,46,21.30
2012,07,13,16,47,21.30
2012,07,13,16,48,21.20
2012,07,13,16,49,21.10
2012,07,13,16,50,21.10
2012,07,13,16,51,21.10
2012,07,13,16,52,21.10
2012,07,13,16,53,21.10
2012,07,13,16,54,21.10
2012,07,13,16,55,21.10
2012,07,13,16,56,21.10
2012,07,13,16,57,21.10
2012,07,13,16,58,21.20
2012,07,13,16,59,21.20
2012,07,13,17,00,21.30
2012,07,13,17,01,21.30
2012,07,13,17,02,21.20
2012,07,13,17,03,21.20
2012,07,13,17,04,21.10
2012,07,13,17,05,21.10
2012,07,13,17,06,21.10
2012,07,13,17,07,21.20
2012,07,13,17,08,21.20
2012,07,13,17,09,21.20
2012,07,13,17,10,21.20
2012,07,13,17,11,21.10
2012,07,13,17,12,21.10
2012,07,13,17,13,21.10
2012,07,13,17,14,21.10
2012,07,13,17,15,21.20
2012,07,13,17,16,21.20
2012,07,13,17,17,21.30
2012,07,13,17,18,21.30
2012,07,13,17,19,21.30
2012,07,13,17,20,21.30
2012,07,13,17,21,21.30